Year,Month,Day,Hour,Minute,Value (Times are PST for windspeed in km/hr)
2014,11,06,00,00,0.00
2014,11,06,00,01,0.00
2014,11,06,00,02,0.80
2014,11,06,00,03,0.10
2014,11,06,00,04,0.00
2014,11,06,00,05,0.00
2014,11,06,00,06,0.00
2014,11,06,00,07,0.00
2014,11,06,00,08,0.10
2014,11,06,00,09,0.10
2014,11,06,00,10,1.60
2014,11,06,00,11,0.20
2014,11,06,00,12,0.20
2014,11,06,00,13,0.00
2014,11,06,00,14,0.10
2014,11,06,00,15,0.00
2014,11,06,00,16,0.00
2014,11,06,00,17,0.20
2014,11,06,00,18,0.30
2014,11,06,00,19,0.00
2014,11,06,00,20,0.00
2014,11,06,00,21,0.30
2014,11,06,00,22,4.00
2014,11,06,00,23,3.40
2014,11,06,00,24,1.30
2014,11,06,00,25,1.80
2014,11,06,00,26,1.90
2014,11,06,00,27,0.50
2014,11,06,00,28,1.50
2014,11,06,00,29,4.00
2014,11,06,00,30,0.50
2014,11,06,00,31,0.20
2014,11,06,00,32,0.00
2014,11,06,00,33,0.00
2014,11,06,00,34,0.00
2014,11,06,00,35,0.10
2014,11,06,00,36,0.40
2014,11,06,00,37,1.10
2014,11,06,00,38,1.10
2014,11,06,00,39,0.00
2014,11,06,00,40,0.00
2014,11,06,00,41,0.00
2014,11,06,00,42,0.00
2014,11,06,00,43,0.00
2014,11,06,00,44,0.70
2014,11,06,00,45,0.80
2014,11,06,00,46,0.00
2014,11,06,00,47,0.00
2014,11,06,00,48,0.00
2014,11,06,00,49,0.00
2014,11,06,00,50,0.00
2014,11,06,00,51,0.00
2014,11,06,00,52,0.00
2014,11,06,00,53,0.00
2014,11,06,00,54,0.00
2014,11,06,00,55,0.00
2014,11,06,00,56,0.00
2014,11,06,00,57,0.00
2014,11,06,00,58,0.00
2014,11,06,00,59,0.00
2014,11,06,01,00,0.40
2014,11,06,01,01,0.00
2014,11,06,01,02,0.60
2014,11,06,01,03,0.00
2014,11,06,01,04,0.10
2014,11,06,01,05,0.00
2014,11,06,01,06,0.10
2014,11,06,01,07,0.00
2014,11,06,01,08,0.00
2014,11,06,01,09,0.40
2014,11,06,01,10,0.00
2014,11,06,01,11,0.00
2014,11,06,01,12,1.20
2014,11,06,01,13,0.00
2014,11,06,01,14,0.00
2014,11,06,01,15,0.00
2014,11,06,01,16,1.40
2014,11,06,01,17,0.20
2014,11,06,01,18,0.10
2014,11,06,01,19,0.30
2014,11,06,01,20,1.10
2014,11,06,01,21,1.10
2014,11,06,01,22,0.10
2014,11,06,01,23,0.10
2014,11,06,01,24,2.20
2014,11,06,01,25,0.50
2014,11,06,01,26,0.70
2014,11,06,01,27,0.20
2014,11,06,01,28,0.70
2014,11,06,01,29,1.30
2014,11,06,01,30,0.50
2014,11,06,01,31,2.50
2014,11,06,01,32,1.50
2014,11,06,01,33,1.00
2014,11,06,01,34,0.20
2014,11,06,01,35,3.60
2014,11,06,01,36,1.10
2014,11,06,01,37,1.60
2014,11,06,01,38,2.80
2014,11,06,01,39,1.50
2014,11,06,01,40,3.80
2014,11,06,01,41,1.60
2014,11,06,01,42,3.00
2014,11,06,01,43,6.70
2014,11,06,01,44,1.00
2014,11,06,01,45,2.70
2014,11,06,01,46,0.80
2014,11,06,01,47,1.40
2014,11,06,01,48,1.80
2014,11,06,01,49,0.00
2014,11,06,01,50,0.20
2014,11,06,01,51,1.10
2014,11,06,01,52,1.70
2014,11,06,01,53,1.20
2014,11,06,01,54,0.10
2014,11,06,01,55,3.50
2014,11,06,01,56,1.00
2014,11,06,01,57,5.90
2014,11,06,01,58,3.80
2014,11,06,01,59,0.10
2014,11,06,02,00,0.00
2014,11,06,02,01,0.00
2014,11,06,02,02,0.20
2014,11,06,02,03,1.00
2014,11,06,02,04,3.30
2014,11,06,02,05,0.60
2014,11,06,02,06,0.80
2014,11,06,02,07,0.40
2014,11,06,02,08,1.80
2014,11,06,02,09,1.40
2014,11,06,02,10,1.70
2014,11,06,02,11,2.50
2014,11,06,02,12,5.80
2014,11,06,02,13,0.80
2014,11,06,02,14,1.50
2014,11,06,02,15,2.90
2014,11,06,02,16,0.50
2014,11,06,02,17,1.10
2014,11,06,02,18,2.40
2014,11,06,02,19,1.90
2014,11,06,02,20,0.70
2014,11,06,02,21,2.10
2014,11,06,02,22,1.00
2014,11,06,02,23,0.00
2014,11,06,02,24,0.00
2014,11,06,02,25,0.00
2014,11,06,02,26,0.20
2014,11,06,02,27,1.10
2014,11,06,02,28,1.50
2014,11,06,02,29,0.00
2014,11,06,02,30,0.00
2014,11,06,02,31,0.40
2014,11,06,02,32,0.00
2014,11,06,02,33,0.00
2014,11,06,02,34,1.10
2014,11,06,02,35,0.00
2014,11,06,02,36,1.10
2014,11,06,02,37,0.40
2014,11,06,02,38,0.00
2014,11,06,02,39,0.10
2014,11,06,02,40,0.40
2014,11,06,02,41,0.00
2014,11,06,02,42,2.20
2014,11,06,02,43,0.00
2014,11,06,02,44,0.20
2014,11,06,02,45,1.20
2014,11,06,02,46,0.00
2014,11,06,02,47,0.00
2014,11,06,02,48,1.00
2014,11,06,02,49,0.00
2014,11,06,02,50,0.00
2014,11,06,02,51,1.60
2014,11,06,02,52,1.70
2014,11,06,02,53,0.10
2014,11,06,02,54,0.00
2014,11,06,02,55,2.60
2014,11,06,02,56,0.30
2014,11,06,02,57,0.00
2014,11,06,02,58,0.00
2014,11,06,02,59,0.00
2014,11,06,03,00,0.00
2014,11,06,03,01,0.00
2014,11,06,03,02,0.00
2014,11,06,03,03,0.00
2014,11,06,03,04,0.00
2014,11,06,03,05,0.00
2014,11,06,03,06,0.00
2014,11,06,03,07,0.20
2014,11,06,03,08,0.10
2014,11,06,03,09,0.60
2014,11,06,03,10,0.10
2014,11,06,03,11,1.10
2014,11,06,03,12,0.10
2014,11,06,03,13,2.40
2014,11,06,03,14,1.50
2014,11,06,03,15,1.10
2014,11,06,03,16,1.70
2014,11,06,03,17,0.90
2014,11,06,03,18,0.00
2014,11,06,03,19,0.00
2014,11,06,03,20,0.00
2014,11,06,03,21,0.40
2014,11,06,03,22,0.50
2014,11,06,03,23,0.00
2014,11,06,03,24,0.00
2014,11,06,03,25,0.10
2014,11,06,03,26,0.60
2014,11,06,03,27,0.00
2014,11,06,03,28,0.00
2014,11,06,03,29,0.00
2014,11,06,03,30,0.00
2014,11,06,03,31,0.00
2014,11,06,03,32,0.00
2014,11,06,03,33,0.00
2014,11,06,03,34,0.00
2014,11,06,03,35,0.00
2014,11,06,03,36,0.00
2014,11,06,03,37,0.00
2014,11,06,03,38,0.00
2014,11,06,03,39,0.00
2014,11,06,03,40,0.00
2014,11,06,03,41,0.00
2014,11,06,03,42,0.00
2014,11,06,03,43,0.00
2014,11,06,03,44,0.00
2014,11,06,03,45,0.00
2014,11,06,03,46,0.00
2014,11,06,03,47,0.00
2014,11,06,03,48,0.00
2014,11,06,03,49,0.00
2014,11,06,03,50,0.00
2014,11,06,03,51,0.00
2014,11,06,03,52,0.00
2014,11,06,03,53,0.00
2014,11,06,03,54,0.00
2014,11,06,03,55,0.00
2014,11,06,03,56,0.00
2014,11,06,03,57,0.00
2014,11,06,03,58,0.00
2014,11,06,03,59,0.00
2014,11,06,04,00,0.00
2014,11,06,04,01,0.00
2014,11,06,04,02,0.00
2014,11,06,04,03,0.00
2014,11,06,04,04,0.00
2014,11,06,04,05,0.00
2014,11,06,04,06,0.00
2014,11,06,04,07,0.00
2014,11,06,04,08,0.00
2014,11,06,04,09,0.00
2014,11,06,04,10,0.00
2014,11,06,04,11,0.00
2014,11,06,04,12,0.00
2014,11,06,04,13,0.00
2014,11,06,04,14,0.00
2014,11,06,04,15,0.00
2014,11,06,04,16,0.00
2014,11,06,04,17,0.00
2014,11,06,04,18,0.10
2014,11,06,04,19,0.00
2014,11,06,04,20,0.00
2014,11,06,04,21,0.00
2014,11,06,04,22,0.00
2014,11,06,04,23,0.00
2014,11,06,04,24,0.00
2014,11,06,04,25,0.00
2014,11,06,04,26,0.00
2014,11,06,04,27,0.00
2014,11,06,04,28,0.00
2014,11,06,04,29,0.00
2014,11,06,04,30,0.00
2014,11,06,04,31,0.00
2014,11,06,04,32,0.00
2014,11,06,04,33,0.00
2014,11,06,04,34,0.00
2014,11,06,04,35,0.00
2014,11,06,04,36,0.00
2014,11,06,04,37,0.00
2014,11,06,04,38,1.10
2014,11,06,04,39,0.10
2014,11,06,04,40,0.10
2014,11,06,04,41,0.00
2014,11,06,04,42,0.50
2014,11,06,04,43,0.20
2014,11,06,04,44,0.00
2014,11,06,04,45,0.00
2014,11,06,04,46,0.20
2014,11,06,04,47,0.20
2014,11,06,04,48,0.00
2014,11,06,04,49,0.00
2014,11,06,04,50,0.20
2014,11,06,04,51,0.20
2014,11,06,04,52,0.00
2014,11,06,04,53,2.40
2014,11,06,04,54,0.40
2014,11,06,04,55,0.00
2014,11,06,04,56,0.00
2014,11,06,04,57,0.00
2014,11,06,04,58,0.00
2014,11,06,04,59,0.00
2014,11,06,05,00,0.00
2014,11,06,05,01,0.00
2014,11,06,05,02,0.00
2014,11,06,05,03,0.00
2014,11,06,05,04,0.00
2014,11,06,05,05,0.00
2014,11,06,05,06,0.00
2014,11,06,05,07,0.00
2014,11,06,05,08,0.40
2014,11,06,05,09,0.80
2014,11,06,05,10,0.00
2014,11,06,05,11,0.00
2014,11,06,05,12,0.00
2014,11,06,05,13,0.00
2014,11,06,05,14,0.00
2014,11,06,05,15,0.00
2014,11,06,05,16,0.00
2014,11,06,05,17,0.00
2014,11,06,05,18,0.00
2014,11,06,05,19,0.40
2014,11,06,05,20,0.10
2014,11,06,05,21,0.00
2014,11,06,05,22,0.00
2014,11,06,05,23,0.00
2014,11,06,05,24,0.00
2014,11,06,05,25,0.00
2014,11,06,05,26,0.00
2014,11,06,05,27,0.00
2014,11,06,05,28,0.00
2014,11,06,05,29,0.00
2014,11,06,05,30,0.00
2014,11,06,05,31,0.00
2014,11,06,05,32,0.00
2014,11,06,05,33,0.00
2014,11,06,05,34,0.00
2014,11,06,05,35,0.00
2014,11,06,05,36,0.00
2014,11,06,05,37,0.00
2014,11,06,05,38,0.00
2014,11,06,05,39,0.00
2014,11,06,05,40,0.00
2014,11,06,05,41,0.00
2014,11,06,05,42,0.00
2014,11,06,05,43,0.00
2014,11,06,05,44,0.00
2014,11,06,05,45,0.00
2014,11,06,05,46,0.00
2014,11,06,05,47,0.00
2014,11,06,05,48,0.00
2014,11,06,05,49,0.00
2014,11,06,05,50,0.20
2014,11,06,05,51,0.20
2014,11,06,05,52,0.00
2014,11,06,05,53,0.00
2014,11,06,05,54,0.00
2014,11,06,05,55,0.00
2014,11,06,05,56,0.00
2014,11,06,05,57,0.00
2014,11,06,05,58,0.00
2014,11,06,05,59,0.00
2014,11,06,06,00,0.00
2014,11,06,06,01,0.00
2014,11,06,06,02,0.00
2014,11,06,06,03,0.00
2014,11,06,06,04,0.00
2014,11,06,06,05,0.00
2014,11,06,06,06,0.00
2014,11,06,06,07,0.00
2014,11,06,06,08,0.00
2014,11,06,06,09,0.00
2014,11,06,06,10,0.00
2014,11,06,06,11,0.00
2014,11,06,06,12,0.00
2014,11,06,06,13,0.00
2014,11,06,06,14,0.00
2014,11,06,06,15,0.00
2014,11,06,06,16,0.60
2014,11,06,06,17,0.00
2014,11,06,06,18,0.00
2014,11,06,06,19,0.00
2014,11,06,06,20,0.00
2014,11,06,06,21,0.00
2014,11,06,06,22,0.00
2014,11,06,06,23,0.00
2014,11,06,06,24,0.00
2014,11,06,06,25,0.00
2014,11,06,06,26,0.00
2014,11,06,06,27,0.00
2014,11,06,06,28,0.00
2014,11,06,06,29,0.00
2014,11,06,06,30,0.00
2014,11,06,06,31,0.00
2014,11,06,06,32,0.00
2014,11,06,06,33,0.00
2014,11,06,06,34,0.00
2014,11,06,06,35,0.00
2014,11,06,06,36,0.00
2014,11,06,06,37,0.00
2014,11,06,06,38,0.00
2014,11,06,06,39,0.00
2014,11,06,06,40,0.00
2014,11,06,06,41,0.00
2014,11,06,06,42,0.00
2014,11,06,06,43,0.00
2014,11,06,06,44,0.00
2014,11,06,06,45,0.00
2014,11,06,06,46,0.00
2014,11,06,06,47,0.00
2014,11,06,06,48,0.00
2014,11,06,06,49,0.00
2014,11,06,06,50,0.00
2014,11,06,06,51,0.00
2014,11,06,06,52,0.00
2014,11,06,06,53,0.00
2014,11,06,06,54,0.00
2014,11,06,06,55,0.00
2014,11,06,06,56,0.00
2014,11,06,06,57,0.00
2014,11,06,06,58,0.00
2014,11,06,06,59,0.00
2014,11,06,07,00,0.00
2014,11,06,07,01,0.00
2014,11,06,07,02,0.00
2014,11,06,07,03,0.00
2014,11,06,07,04,0.00
2014,11,06,07,05,0.00
2014,11,06,07,06,0.00
2014,11,06,07,07,0.00
2014,11,06,07,08,0.00
2014,11,06,07,09,0.00
2014,11,06,07,10,0.00
2014,11,06,07,11,0.00
2014,11,06,07,12,0.00
2014,11,06,07,13,0.00
2014,11,06,07,14,0.00
2014,11,06,07,15,0.00
2014,11,06,07,16,0.00
2014,11,06,07,17,0.00
2014,11,06,07,18,0.00
2014,11,06,07,19,0.00
2014,11,06,07,20,0.00
2014,11,06,07,21,0.10
2014,11,06,07,22,2.10
2014,11,06,07,23,5.00
2014,11,06,07,24,2.40
2014,11,06,07,25,0.00
2014,11,06,07,26,0.10
2014,11,06,07,27,4.20
2014,11,06,07,28,0.90
2014,11,06,07,29,0.90
2014,11,06,07,30,0.00
2014,11,06,07,31,1.80
2014,11,06,07,32,0.70
2014,11,06,07,33,0.00
2014,11,06,07,34,0.10
2014,11,06,07,35,0.00
2014,11,06,07,36,0.00
2014,11,06,07,37,0.00
2014,11,06,07,38,0.00
2014,11,06,07,39,0.00
2014,11,06,07,40,0.00
2014,11,06,07,41,0.00
2014,11,06,07,42,0.00
2014,11,06,07,43,0.00
2014,11,06,07,44,0.00
2014,11,06,07,45,0.00
2014,11,06,07,46,0.00
2014,11,06,07,47,0.00
2014,11,06,07,48,0.00
2014,11,06,07,49,0.00
2014,11,06,07,50,0.00
2014,11,06,07,51,0.00
2014,11,06,07,52,0.00
2014,11,06,07,53,0.00
2014,11,06,07,54,0.00
2014,11,06,07,55,0.00
2014,11,06,07,56,0.10
2014,11,06,07,57,2.60
2014,11,06,07,58,2.40
2014,11,06,07,59,0.00
2014,11,06,08,00,0.00
2014,11,06,08,01,0.00
2014,11,06,08,02,0.00
2014,11,06,08,03,0.00
2014,11,06,08,04,0.00
2014,11,06,08,05,0.10
2014,11,06,08,06,0.00
2014,11,06,08,07,0.00
2014,11,06,08,08,0.00
2014,11,06,08,09,0.00
2014,11,06,08,10,0.00
2014,11,06,08,11,0.00
2014,11,06,08,12,0.00
2014,11,06,08,13,0.00
2014,11,06,08,14,0.00
2014,11,06,08,15,0.00
2014,11,06,08,16,0.00
2014,11,06,08,17,0.00
2014,11,06,08,18,0.00
2014,11,06,08,19,0.00
2014,11,06,08,20,0.00
2014,11,06,08,21,0.00
2014,11,06,08,22,0.00
2014,11,06,08,23,0.00
2014,11,06,08,24,0.10
2014,11,06,08,25,0.00
2014,11,06,08,26,0.20
2014,11,06,08,27,0.70
2014,11,06,08,28,0.10
2014,11,06,08,29,0.90
2014,11,06,08,30,0.50
2014,11,06,08,31,0.00
2014,11,06,08,32,0.00
2014,11,06,08,33,0.00
2014,11,06,08,34,0.00
2014,11,06,08,35,0.00
2014,11,06,08,36,0.00
2014,11,06,08,37,0.10
2014,11,06,08,38,0.00
2014,11,06,08,39,0.00
2014,11,06,08,40,0.00
2014,11,06,08,41,0.00
2014,11,06,08,42,0.00
2014,11,06,08,43,0.50
2014,11,06,08,44,0.80
2014,11,06,08,45,0.80
2014,11,06,08,46,0.00
2014,11,06,08,47,0.00
2014,11,06,08,48,0.00
2014,11,06,08,49,0.00
2014,11,06,08,50,0.00
2014,11,06,08,51,0.00
2014,11,06,08,52,1.50
2014,11,06,08,53,1.10
2014,11,06,08,54,0.10
2014,11,06,08,55,0.80
2014,11,06,08,56,0.00
2014,11,06,08,57,0.00
2014,11,06,08,58,0.00
2014,11,06,08,59,0.00
2014,11,06,09,00,0.00
2014,11,06,09,01,0.20
2014,11,06,09,02,0.10
2014,11,06,09,03,0.30
2014,11,06,09,04,0.00
2014,11,06,09,05,0.00
2014,11,06,09,06,0.00
2014,11,06,09,07,0.10
2014,11,06,09,08,0.80
2014,11,06,09,09,0.00
2014,11,06,09,10,0.00
2014,11,06,09,11,0.20
2014,11,06,09,12,1.40
2014,11,06,09,13,0.10
2014,11,06,09,14,0.00
2014,11,06,09,15,0.00
2014,11,06,09,16,0.30
2014,11,06,09,17,1.10
2014,11,06,09,18,0.60
2014,11,06,09,19,0.20
2014,11,06,09,20,0.20
2014,11,06,09,21,1.30
2014,11,06,09,22,1.70
2014,11,06,09,23,0.30
2014,11,06,09,24,2.80
2014,11,06,09,25,2.40
2014,11,06,09,26,4.40
2014,11,06,09,27,2.80
2014,11,06,09,28,1.80
2014,11,06,09,29,0.00
2014,11,06,09,30,1.40
2014,11,06,09,31,2.50
2014,11,06,09,32,0.10
2014,11,06,09,33,0.70
2014,11,06,09,34,1.50
2014,11,06,09,35,2.60
2014,11,06,09,36,1.60
2014,11,06,09,37,3.10
2014,11,06,09,38,0.50
2014,11,06,09,39,0.20
2014,11,06,09,40,1.80
2014,11,06,09,41,0.70
2014,11,06,09,42,1.80
2014,11,06,09,43,2.10
2014,11,06,09,44,0.80
2014,11,06,09,45,2.30
2014,11,06,09,46,0.50
2014,11,06,09,47,2.60
2014,11,06,09,48,0.70
2014,11,06,09,49,0.80
2014,11,06,09,50,1.80
2014,11,06,09,51,2.40
2014,11,06,09,52,1.60
2014,11,06,09,53,0.60
2014,11,06,09,54,0.60
2014,11,06,09,55,3.10
2014,11,06,09,56,2.20
2014,11,06,09,57,0.00
2014,11,06,09,58,1.70
2014,11,06,09,59,0.20
2014,11,06,10,00,0.20
2014,11,06,10,01,3.10
2014,11,06,10,02,1.20
2014,11,06,10,03,1.30
2014,11,06,10,04,0.70
2014,11,06,10,05,0.10
2014,11,06,10,06,1.90
2014,11,06,10,07,2.40
2014,11,06,10,08,1.60
2014,11,06,10,09,0.30
2014,11,06,10,10,0.00
2014,11,06,10,11,2.00
2014,11,06,10,12,1.20
2014,11,06,10,13,1.60
2014,11,06,10,14,1.00
2014,11,06,10,15,1.70
2014,11,06,10,16,2.00
2014,11,06,10,17,1.80
2014,11,06,10,18,0.00
2014,11,06,10,19,2.70
2014,11,06,10,20,1.20
2014,11,06,10,21,1.20
2014,11,06,10,22,2.10
2014,11,06,10,23,1.70
2014,11,06,10,24,0.30
2014,11,06,10,25,0.90
2014,11,06,10,26,0.10
2014,11,06,10,27,4.20
2014,11,06,10,28,0.00
2014,11,06,10,29,0.50
2014,11,06,10,30,0.10
2014,11,06,10,31,1.10
2014,11,06,10,32,2.00
2014,11,06,10,33,2.20
2014,11,06,10,34,0.60
2014,11,06,10,35,1.70
2014,11,06,10,36,1.40
2014,11,06,10,37,0.80
2014,11,06,10,38,2.70
2014,11,06,10,39,0.70
2014,11,06,10,40,0.50
2014,11,06,10,41,2.80
2014,11,06,10,42,2.00
2014,11,06,10,43,3.90
2014,11,06,10,44,3.20
2014,11,06,10,45,1.80
2014,11,06,10,46,1.60
2014,11,06,10,47,0.40
2014,11,06,10,48,2.10
2014,11,06,10,49,2.30
2014,11,06,10,50,1.30
2014,11,06,10,51,1.10
2014,11,06,10,52,0.00
2014,11,06,10,53,1.50
2014,11,06,10,54,0.40
2014,11,06,10,55,0.60
2014,11,06,10,56,0.00
2014,11,06,10,57,1.10
2014,11,06,10,58,0.10
2014,11,06,10,59,0.00
2014,11,06,11,00,0.70
2014,11,06,11,01,0.10
2014,11,06,11,02,1.80
2014,11,06,11,03,1.80
2014,11,06,11,04,3.90
2014,11,06,11,05,2.30
2014,11,06,11,06,0.00
2014,11,06,11,07,2.70
2014,11,06,11,08,3.80
2014,11,06,11,09,0.20
2014,11,06,11,10,1.50
2014,11,06,11,11,0.80
2014,11,06,11,12,1.00
2014,11,06,11,13,1.60
2014,11,06,11,14,0.10
2014,11,06,11,15,1.20
2014,11,06,11,16,2.20
2014,11,06,11,17,2.40
2014,11,06,11,18,0.10
2014,11,06,11,19,0.50
2014,11,06,11,20,1.90
2014,11,06,11,21,0.10
2014,11,06,11,22,0.40
2014,11,06,11,23,0.10
2014,11,06,11,24,0.00
2014,11,06,11,25,4.30
2014,11,06,11,26,0.20
2014,11,06,11,27,0.00
2014,11,06,11,28,2.50
2014,11,06,11,29,0.70
2014,11,06,11,30,2.90
2014,11,06,11,31,0.10
2014,11,06,11,32,0.00
2014,11,06,11,33,0.00
2014,11,06,11,34,0.00
2014,11,06,11,35,0.40
2014,11,06,11,36,3.40
2014,11,06,11,37,0.30
2014,11,06,11,38,0.40
2014,11,06,11,39,0.10
2014,11,06,11,40,0.10
2014,11,06,11,41,0.70
2014,11,06,11,42,1.30
2014,11,06,11,43,0.00
2014,11,06,11,44,1.70
2014,11,06,11,45,0.00
2014,11,06,11,46,0.40
2014,11,06,11,47,2.20
2014,11,06,11,48,5.10
2014,11,06,11,49,1.40
2014,11,06,11,50,4.50
2014,11,06,11,51,3.90
2014,11,06,11,52,6.00
2014,11,06,11,53,6.10
2014,11,06,11,54,1.60
2014,11,06,11,55,2.60
2014,11,06,11,56,6.90
2014,11,06,11,57,2.90
2014,11,06,11,58,4.10
2014,11,06,11,59,2.80
2014,11,06,12,00,0.80
2014,11,06,12,01,1.20
2014,11,06,12,02,1.50
2014,11,06,12,03,0.00
2014,11,06,12,04,4.70
2014,11,06,12,05,4.80
2014,11,06,12,06,3.00
2014,11,06,12,07,4.30
2014,11,06,12,08,1.30
2014,11,06,12,09,2.30
2014,11,06,12,10,3.50
2014,11,06,12,11,3.50
2014,11,06,12,12,2.40
2014,11,06,12,13,1.20
2014,11,06,12,14,2.10
2014,11,06,12,15,6.00
2014,11,06,12,16,5.20
2014,11,06,12,17,5.90
2014,11,06,12,18,0.80
2014,11,06,12,19,4.80
2014,11,06,12,20,6.00
2014,11,06,12,21,3.80
2014,11,06,12,22,3.20
2014,11,06,12,23,8.40
2014,11,06,12,24,5.40
2014,11,06,12,25,2.40
2014,11,06,12,26,5.70
2014,11,06,12,27,3.10
2014,11,06,12,28,2.80
2014,11,06,12,29,7.30
2014,11,06,12,30,4.80
2014,11,06,12,31,3.70
2014,11,06,12,32,5.90
2014,11,06,12,33,9.90
2014,11,06,12,34,4.30
2014,11,06,12,35,5.80
2014,11,06,12,36,2.80
2014,11,06,12,37,4.30
2014,11,06,12,38,2.80
2014,11,06,12,39,3.10
2014,11,06,12,40,2.80
2014,11,06,12,41,6.00
2014,11,06,12,42,7.90
2014,11,06,12,43,8.60
2014,11,06,12,44,10.80
2014,11,06,12,45,4.60
2014,11,06,12,46,6.90
2014,11,06,12,47,7.90
2014,11,06,12,48,1.80
2014,11,06,12,49,8.00
2014,11,06,12,50,5.00
2014,11,06,12,51,5.00
2014,11,06,12,52,6.10
2014,11,06,12,53,9.70
2014,11,06,12,54,5.40
2014,11,06,12,55,2.00
2014,11,06,12,56,2.50
2014,11,06,12,57,6.20
2014,11,06,12,58,9.60
2014,11,06,12,59,5.90
2014,11,06,13,00,4.70
2014,11,06,13,01,2.90
2014,11,06,13,02,5.10
2014,11,06,13,03,7.40
2014,11,06,13,04,4.30
2014,11,06,13,05,4.40
2014,11,06,13,06,8.50
2014,11,06,13,07,4.80
2014,11,06,13,08,6.50
2014,11,06,13,09,3.40
2014,11,06,13,10,2.50
2014,11,06,13,11,5.90
2014,11,06,13,12,2.70
2014,11,06,13,13,6.00
2014,11,06,13,14,11.10
2014,11,06,13,15,6.90
2014,11,06,13,16,7.50
2014,11,06,13,17,6.10
2014,11,06,13,18,7.30
2014,11,06,13,19,3.90
2014,11,06,13,20,4.10
2014,11,06,13,21,2.40
2014,11,06,13,22,5.00
2014,11,06,13,23,7.30
2014,11,06,13,24,3.90
2014,11,06,13,25,6.10
2014,11,06,13,26,6.20
2014,11,06,13,27,6.40
2014,11,06,13,28,8.70
2014,11,06,13,29,4.50
2014,11,06,13,30,5.10
2014,11,06,13,31,7.00
2014,11,06,13,32,6.30
2014,11,06,13,33,7.80
2014,11,06,13,34,7.30
2014,11,06,13,35,5.90
2014,11,06,13,36,7.20
2014,11,06,13,37,9.10
2014,11,06,13,38,9.00
2014,11,06,13,39,11.00
2014,11,06,13,40,10.80
2014,11,06,13,41,8.90
2014,11,06,13,42,9.10
2014,11,06,13,43,11.60
2014,11,06,13,44,7.70
2014,11,06,13,45,6.90
2014,11,06,13,46,7.90
2014,11,06,13,47,7.60
2014,11,06,13,48,7.20
2014,11,06,13,49,10.30
2014,11,06,13,50,12.00
2014,11,06,13,51,11.40
2014,11,06,13,52,13.80
2014,11,06,13,53,9.90
2014,11,06,13,54,8.90
2014,11,06,13,55,12.40
2014,11,06,13,56,10.80
2014,11,06,13,57,8.80
2014,11,06,13,58,8.10
2014,11,06,13,59,8.40
2014,11,06,14,00,9.50
2014,11,06,14,01,10.50
2014,11,06,14,02,12.60
2014,11,06,14,03,11.20
2014,11,06,14,04,9.00
2014,11,06,14,05,9.50
2014,11,06,14,06,14.90
2014,11,06,14,07,8.00
2014,11,06,14,08,6.60
2014,11,06,14,09,11.00
2014,11,06,14,10,9.60
2014,11,06,14,11,7.40
2014,11,06,14,12,11.60
2014,11,06,14,13,15.10
2014,11,06,14,14,14.90
2014,11,06,14,15,6.40
2014,11,06,14,16,12.20
2014,11,06,14,17,12.00
2014,11,06,14,18,10.20
2014,11,06,14,19,13.70
2014,11,06,14,20,8.40
2014,11,06,14,21,11.30
2014,11,06,14,22,12.40
2014,11,06,14,23,10.70
2014,11,06,14,24,12.60
2014,11,06,14,25,18.30
2014,11,06,14,26,10.20
2014,11,06,14,27,8.60
2014,11,06,14,28,16.50
2014,11,06,14,29,10.70
2014,11,06,14,30,12.10
2014,11,06,14,31,5.60
2014,11,06,14,32,13.60
2014,11,06,14,33,8.60
2014,11,06,14,34,11.00
2014,11,06,14,35,17.20
2014,11,06,14,36,10.00
2014,11,06,14,37,12.70
2014,11,06,14,38,17.20
2014,11,06,14,39,9.80
2014,11,06,14,40,15.60
2014,11,06,14,41,15.10
2014,11,06,14,42,13.70
2014,11,06,14,43,14.60
2014,11,06,14,44,11.70
2014,11,06,14,45,9.40
2014,11,06,14,46,13.30
2014,11,06,14,47,9.70
2014,11,06,14,48,10.20
2014,11,06,14,49,13.70
2014,11,06,14,50,9.00
2014,11,06,14,51,9.70
2014,11,06,14,52,11.70
2014,11,06,14,53,8.90
2014,11,06,14,54,12.80
2014,11,06,14,55,6.30
2014,11,06,14,56,8.90
2014,11,06,14,57,11.00
2014,11,06,14,58,13.20
2014,11,06,14,59,10.90
2014,11,06,15,00,8.80
2014,11,06,15,01,7.50
2014,11,06,15,02,6.70
2014,11,06,15,03,7.70
2014,11,06,15,04,4.80
2014,11,06,15,05,7.00
2014,11,06,15,06,12.30
2014,11,06,15,07,14.00
2014,11,06,15,08,12.40
2014,11,06,15,09,12.50
2014,11,06,15,10,17.40
2014,11,06,15,11,16.30
2014,11,06,15,12,8.50
2014,11,06,15,13,9.20
2014,11,06,15,14,9.30
2014,11,06,15,15,13.00
2014,11,06,15,16,22.80
2014,11,06,15,17,11.10
2014,11,06,15,18,8.00
2014,11,06,15,19,8.50
2014,11,06,15,20,7.30
2014,11,06,15,21,6.20
2014,11,06,15,22,6.40
2014,11,06,15,23,14.20
2014,11,06,15,24,19.10
2014,11,06,15,25,17.70
2014,11,06,15,26,9.90
2014,11,06,15,27,9.60
2014,11,06,15,28,13.90
2014,11,06,15,29,17.00
2014,11,06,15,30,13.90
2014,11,06,15,31,16.60
2014,11,06,15,32,10.00
2014,11,06,15,33,13.60
2014,11,06,15,34,13.00
2014,11,06,15,35,17.20
2014,11,06,15,36,14.00
2014,11,06,15,37,9.60
2014,11,06,15,38,14.00
2014,11,06,15,39,13.40
2014,11,06,15,40,13.70
2014,11,06,15,41,14.20
2014,11,06,15,42,15.70
2014,11,06,15,43,17.10
2014,11,06,15,44,22.90
2014,11,06,15,45,15.40
2014,11,06,15,46,14.20
2014,11,06,15,47,9.80
2014,11,06,15,48,10.20
2014,11,06,15,49,14.00
2014,11,06,15,50,15.30
2014,11,06,15,51,14.10
2014,11,06,15,52,14.40
2014,11,06,15,53,9.70
2014,11,06,15,54,7.90
2014,11,06,15,55,5.20
2014,11,06,15,56,12.00
2014,11,06,15,57,11.50
2014,11,06,15,58,8.60
2014,11,06,15,59,12.10
2014,11,06,16,00,14.30
2014,11,06,16,01,16.60
2014,11,06,16,02,16.10
2014,11,06,16,03,14.00
2014,11,06,16,04,14.50
2014,11,06,16,05,17.20
2014,11,06,16,06,12.80
2014,11,06,16,07,8.40
2014,11,06,16,08,16.30
2014,11,06,16,09,7.30
2014,11,06,16,10,5.40
2014,11,06,16,11,15.90
2014,11,06,16,12,16.50
2014,11,06,16,13,13.50
2014,11,06,16,14,6.40
2014,11,06,16,15,12.40
2014,11,06,16,16,14.90
2014,11,06,16,17,14.10
2014,11,06,16,18,12.90
2014,11,06,16,19,11.00
2014,11,06,16,20,8.20
2014,11,06,16,21,9.50
2014,11,06,16,22,10.50
2014,11,06,16,23,16.60
2014,11,06,16,24,15.80
2014,11,06,16,25,13.60
2014,11,06,16,26,13.90
2014,11,06,16,27,8.30
2014,11,06,16,28,15.90
2014,11,06,16,29,10.70
2014,11,06,16,30,5.40
2014,11,06,16,31,7.50
2014,11,06,16,32,9.20
2014,11,06,16,33,4.60
2014,11,06,16,34,8.50
2014,11,06,16,35,11.50
2014,11,06,16,36,10.80
2014,11,06,16,37,8.40
2014,11,06,16,38,11.20
2014,11,06,16,39,9.40
2014,11,06,16,40,12.40
2014,11,06,16,41,13.50
2014,11,06,16,42,9.10
2014,11,06,16,43,14.50
2014,11,06,16,44,12.20
2014,11,06,16,45,8.90
2014,11,06,16,46,9.40
2014,11,06,16,47,9.70
2014,11,06,16,48,12.70
2014,11,06,16,49,10.10
2014,11,06,16,50,16.10
2014,11,06,16,51,11.90
2014,11,06,16,52,8.30
2014,11,06,16,53,13.60
2014,11,06,16,54,11.60
2014,11,06,16,55,10.20
2014,11,06,16,56,18.20
2014,11,06,16,57,16.90
2014,11,06,16,58,13.80
2014,11,06,16,59,14.40
2014,11,06,17,00,15.20
2014,11,06,17,01,9.90
2014,11,06,17,02,8.40
2014,11,06,17,03,12.90
2014,11,06,17,04,11.10
2014,11,06,17,05,9.60
2014,11,06,17,06,9.20
2014,11,06,17,07,12.90
2014,11,06,17,08,12.10
2014,11,06,17,09,15.10
2014,11,06,17,10,7.00
2014,11,06,17,11,15.60
2014,11,06,17,12,14.90
2014,11,06,17,13,8.10
2014,11,06,17,14,6.40
2014,11,06,17,15,16.80
2014,11,06,17,16,12.60
2014,11,06,17,17,13.90
2014,11,06,17,18,12.30
2014,11,06,17,19,14.90
2014,11,06,17,20,14.50
2014,11,06,17,21,9.40
2014,11,06,17,22,12.10
2014,11,06,17,23,9.70
2014,11,06,17,24,8.60
2014,11,06,17,25,13.00
2014,11,06,17,26,17.10
2014,11,06,17,27,10.60
2014,11,06,17,28,13.90
2014,11,06,17,29,11.70
2014,11,06,17,30,13.90
2014,11,06,17,31,10.70
2014,11,06,17,32,11.30
2014,11,06,17,33,13.30
2014,11,06,17,34,13.10
2014,11,06,17,35,9.60
2014,11,06,17,36,11.80
2014,11,06,17,37,14.30
2014,11,06,17,38,13.30
2014,11,06,17,39,9.90
2014,11,06,17,40,13.50
2014,11,06,17,41,16.80
2014,11,06,17,42,9.10
2014,11,06,17,43,12.70
2014,11,06,17,44,14.70
2014,11,06,17,45,10.90
2014,11,06,17,46,9.30
2014,11,06,17,47,11.90
2014,11,06,17,48,12.30
2014,11,06,17,49,12.60
2014,11,06,17,50,11.00
2014,11,06,17,51,17.00
2014,11,06,17,52,16.50
2014,11,06,17,53,15.30
2014,11,06,17,54,15.20
2014,11,06,17,55,12.40
2014,11,06,17,56,9.40
2014,11,06,17,57,12.60
2014,11,06,17,58,4.10